Location: Wildlife_Club
(35.6000°N, 81.4330°W)
Time: 10:02:22
(UTC-04:00)

Iridium 56 - Visible Passes

Search period start: 23 August 2017 00:00
Search period end: 02 September 2017 00:00
Orbit: 776 x 779 km, 86.4° (Epoch: 22 August)

Date Brightness Start Highest point End Pass type
(mag) Time Alt. Az. Time Alt. Az. Time Alt. Az.
23 Aug 8.3 00:24:09 11° NNE 00:24:09 11° NNE 00:24:25 10° NNE visible
24 Aug 8.4 01:31:13 12° NNW 01:31:13 12° NNW 01:31:40 10° NNW visible
25 Aug 8.3 00:57:49 13° N 00:57:49 13° N 00:58:24 10° N visible
26 Aug 8.3 00:24:24 12° NNE 00:24:24 12° NNE 00:24:46 10° NNE visible
28 Aug 8.4 00:58:02 12° N 00:58:02 12° N 00:58:23 10° N visible
29 Aug 8.4 00:24:37 12° N 00:24:37 12° N 00:24:58 10° N visible
31 Aug 8.6 00:58:13 10° NNW 00:58:13 10° NNW 00:58:13 10° NNW visible
01 Sep 8.4 00:24:46 11° N 00:24:46 11° N 00:25:02 10° N visible
01 Sep 8.4 23:51:20 11° N 23:51:20 11° N 23:51:27 10° N visible
